Torna al catalogo

STARLINK-5886

AttivoComunicazioniSSO
NORAD 56350·PAYLOAD·🇺🇸 United States

Lanciato Apr 27, 2023 da Vandenberg Space Force Base

Loading…

Prossimi Passaggi (prossime 24 ore)

TLE

AggiornatoSource: CelesTrak SupGP

Epoca: Sep 14, 2026, 21:23 UTC

1 56350C 23058AK  26257.89145833  .00042191  00000+0  13099-2 0  2577
2 56350  97.2848 254.7448 0001633  89.6534  19.6159 15.33412951    17

Traccia STARLINK-5886 in tempo reale con AllMySat

Download on the App Store